User: anonymous   Login
Location: Unspecified
(0.0000°N, 0.0000°E)
Time: 01:56:43
(UTC+01:00)
Language:

Palapa 6 Rocket - Orbit

View from above orbital plane
View from above orbital plane
View from above satellite
View from above satellite

Ground track
Ground track

The orbit data is extracted from the following two-line orbital elements,

1 20571U 90034B   17056.54314967  .00000870  00000-0  81868-4 0  9999
2 20571  22.7478 128.6803 0508752 323.1544  33.4968 14.11873759376234
Epoch (UTC): 25 February 2017 13:02:08
Eccentricity: 0.0508752
inclination: 22.7478°
perigee height: 485 km
apogee height: 1221 km
right ascension of ascending node: 128.6803°
argument of perigee: 323.1544°
revolutions per day: 14.11873759
mean anomaly at epoch: 33.4968°
orbit number at epoch: 37623

The dashed part of the orbit path shows where the satellite is in the earth's shadow,  

DLR